Carlsbad, NM

3:44 PM MDT on August 16, 2017 (GMT -0600)
Cavern City

Weather History for KCNM - November, 2011

Change the Weather History Date:

Saturday, November 5, 2011

  Actual Average Record
Temperature  
Mean Temperature 60 °F -  
Max Temperature 80 °F 68 °F 86 °F (2007)
Min Temperature 42 °F 39 °F -115 °F (2016)
Degree Days  
Heating Degree Days 5    
Growing Degree Days 10 (Base 50)    
Moisture  
Dew Point 27 °F    
Average Humidity 32    
Maximum Humidity 46    
Minimum Humidity 15    
Precipitation  
Precipitation 0.00 in - - ()
Sea Level Pressure  
Sea Level Pressure 29.71 in    
Wind  
Wind Speed 13 mph (SSW)    
Max Wind Speed 32 mph    
Max Gust Speed 47 mph    
Visibility 9 miles    
Events      
Averages and records for this station are not official NWS values.
T = Trace of Precipitation, MM = Missing Value Source: NWS Daily Summary

Daily Weather History Graph

Daily Weather History Graph

Search for Another Location

Airport or City:

Trip Planner

Search our weather history database for the weather conditions in past years. The results will help you decide how hot, cold, wet, or windy it might be!

Date:

Astronomy

Nov. 05, 2011 Rise Set
Actual Time 7:17 AM MDT 6:03 PM MDT
Civil Twilight 6:51 AM MDT 6:28 PM MDT
Nautical Twilight 6:22 AM MDT 6:58 PM MDT
Astronomical Twilight 5:53 AM MDT 7:26 PM MDT
Moon 3:09 PM MDT (11/5) 2:44 AM MDT (11/5)
Length of Visible Light 11h 37m
Length of Day
10h 46m
Waxing Gibbous, 78% of the Moon is Illuminated
Nov 5
Waxing Gibbous
Nov 10
Full
Nov 18
Last Quarter
Nov 24
New
Dec 2
First Quarter

Hourly Weather History & Observations

Time (MDT) Temp. Windchill Dew Point Humidity Pressure Visibility Wind Dir Wind Speed Gust Speed Precip Events Conditions
12:53 AM 50.0 °F - 23.0 °F 35% 29.85 in 10.0 mi SSE 9.2 mph - N/A   Clear
1:53 AM 48.0 °F - 23.0 °F 37% 29.73 in 10.0 mi SSE 12.7 mph - N/A   Clear
2:53 AM 48.9 °F - 23.0 °F 36% 29.71 in 10.0 mi SSE 11.5 mph - N/A   Clear
3:53 AM 46.0 °F 42.5 °F 23.0 °F 40% 29.68 in 10.0 mi South 6.9 mph - N/A   Clear
4:53 AM 46.0 °F 41.0 °F 23.0 °F 40% 29.67 in 10.0 mi South 10.4 mph - N/A   Clear
5:53 AM 42.8 °F 36.6 °F 23.0 °F 46% 29.76 in 10.0 mi South 11.5 mph - N/A   Clear
6:53 AM 43.0 °F 39.5 °F 23.0 °F 45% 29.68 in 10.0 mi SSE 5.8 mph - N/A   Clear
7:53 AM 44.1 °F - 21.9 °F 42% 29.69 in 10.0 mi Calm Calm - N/A   Clear
8:53 AM 48.9 °F - 21.9 °F 35% 29.70 in 10.0 mi SE 11.5 mph - N/A   Clear
10:53 AM 63.0 °F - 25.0 °F 24% 29.64 in 10.0 mi SE 8.1 mph - N/A   Clear
11:38 AM 75.2 °F - 26.6 °F 17% 29.72 in 2.5 mi SSW 32.2 mph 47.2 mph N/A   Haze
11:53 AM 77.0 °F - 26.1 °F 15% 29.59 in 9.0 mi SSW 29.9 mph 40.3 mph N/A   Clear
12:53 PM 78.8 °F - 28.4 °F 16% 29.69 in 10.0 mi WSW 21.9 mph 33.4 mph N/A   Clear
1:53 PM 75.2 °F - 35.6 °F 24% 29.70 in 6.0 mi West 23.0 mph 33.4 mph N/A   Haze
2:53 PM 73.9 °F - 35.1 °F 24% 29.59 in 8.0 mi West 24.2 mph 38.0 mph N/A   Overcast
3:53 PM 71.1 °F - 34.0 °F 26% 29.65 in 10.0 mi WNW 21.9 mph 33.4 mph N/A   Overcast
4:53 PM 68.0 °F - 33.1 °F 27% 29.67 in 10.0 mi West 21.9 mph 27.6 mph N/A   Clear
5:53 PM 64.0 °F - 32.0 °F 30% 29.71 in 10.0 mi West 11.5 mph 20.7 mph N/A   Clear
6:53 PM 62.1 °F - 32.0 °F 32% 29.74 in 10.0 mi West 15.0 mph - N/A   Clear
7:53 PM 60.1 °F - 32.0 °F 35% 29.78 in 10.0 mi SW 8.1 mph - N/A   Clear
8:53 PM 55.9 °F - 30.9 °F 39% 29.79 in 10.0 mi SSW 11.5 mph - N/A   Clear
9:53 PM 57.0 °F - 28.9 °F 34% 29.79 in 10.0 mi WSW 16.1 mph - N/A   Clear
10:53 PM 55.0 °F - 27.0 °F 34% 29.78 in 10.0 mi WSW 15.0 mph - N/A   Clear
11:53 PM 55.9 °F - 27.0 °F 33% 29.75 in 10.0 mi West 18.4 mph 24.2 mph N/A   Clear